OPS 4682 DEB, 15529

Orbit data source: Space-Track

OPS 4682 DEB, 15529 is space debris in LEO originally from a launch on Sat, 03 Apr 1965 UTC launched from the Air Force Western Test Range (AFWTR). Debris objects in space refer to the collection of defunct objects orbiting the Earth. Examples of debris include non-operational satellites, rocket bodies, and fragments generated from explosions, collisions, or faulty payload assembly.

Loading next visibility...
Identifier
15529, 1965-027S
Orbit
LEO
Country
Flag of USUS
Related business
Manufacturer
Unknown
Mission
Spacecraft
Bus & Motor
Unknown
Mass
Unknown
Launch date (UTC)
1965-04-03 (61 years ago)
Launch vehicle
Unknown
Launch site
Air Force Western Test Range (AFWTR)
Object type
Payload
Rocket body
Debris
Shape & HBR
Unknown shape, 0.1 m
Radar Cross Section
Small (<0.1 m²)

Expand to show TLE details & history
Last TLE update: 4 days ago

TLE from 4 days ago
0 OPS 4682 DEB
1 15529U 65027S   25337.82941868 -.00000290  00000-0 -99949-3 0  9994
2 15529  90.2350   2.0357 0033636 132.5578  48.4981 12.99177142131712
Epoch: 2025-12-03T19:54Z
TLE epoch observation values (Epoch: 2025-12-03T19:54:21.773Z)
Latitude
-1.46604°
Longitude
170.5444°
Altitude
1,251.406 km
Speed
7.237 km/s
True Right ascension
12h 08m 07s
True Declination
-1° 27' 28"
Sunlit
Object was in daylight at epoch
Visualization orbit readout
Latitude
Unknown
Longitude
Unknown
Altitude
Unknown
Speed
Unknown
Apparent Right ascension
Unknown
Apparent Declination
Unknown
Sunlit
N/A
Visualization observer readout
Local Sidereal Time
15:16:54
Azimuth
Unknown
Elevation
Unknown
Doppler factor
Unknown
Orbital elements
Apogee altitude
1,288.14 km
Perigee altitude
1,236.741 km
Semi-major axis
7,640.578 km
Eccentricity
0.00336
Inclination
90.235°
RAAN
2.0357°
Arg. of periapsis
132.5578°
True anomaly
48.78757°
Mean anomaly
48.4981°
Eccentric anomaly
48.64276°
Mean motion
3.24978 °/min
Orbital period
110.78 mins
BSTAR
-0.00099949
Loading maneuver chart data...
Computing Atmospheric mass density...
Loading historical data...
Loading historical data...
Loading historical data...
Loading historical data...
Loading historical data...
Loading historical data...
Loading historical data...

Documentation

Showing up to 5 results
|